Tracking 19832 objects as of 24-Aug-2019
HD Live streaming from Space Station
objects crossing your sky now

COSMOS 2251 DEB

Track COSMOS 2251 DEB now!
10-day predictions


NORAD ID: 35037
Int'l Code: 1993-036AHA
Perigee: 670.0 km
Apogee: 735.8 km
Inclination: 74.0 °
Period: 98.7 minutes
Semi major axis: 7073 km
RCS: 0.0081 m2 (small)
Launch date: June 16, 1993
Source: Commonwealth of Independent States (former USSR) (CIS)
Launch site: PLESETSK MISSILE AND SPACE COMPLEX (PKMTR)

Note: This is SATELLITE DEBRIS
aabbcc
Your satellite tracking list
Your tracking list is empty




NASA's NSSDC Master Catalog

Two Line Element Set (TLE):
1 35037U 93036AHA 19235.93288160  .00000451  00000-0  10074-3 0  9991
2 35037  74.0055 320.7786 0046451 327.1184  32.7092 14.59201374548264
Source of the keplerian elements: AFSPC